Waarnemingen

Advertentie
Mijn weer
Gibraltar, Groot Brittannië (8495): temperatuur & dauwpunt: 19.02.2020 03:00:00 - 25.02.2020 03:00:00 (CET)Gibraltar, Groot Brittannië (8495): windsnelheid & windstoten: 19.02.2020 03:00:00 - 25.02.2020 03:00:00 (CET)Gibraltar, Groot Brittannië (8495): windrichting: 19.02.2020 03:00:00 - 25.02.2020 03:00:00 (CET)Gibraltar, Groot Brittannië (8495): luchtdruk: 19.02.2020 03:00:00 - 25.02.2020 03:00:00 (CET)Gibraltar, Groot Brittannië (8495): zicht: 19.02.2020 03:00:00 - 25.02.2020 03:00:00 (CET)Gibraltar, Groot Brittannië (8495): Zonneschijnduur: 19.02.2020 03:00:00 - 25.02.2020 03:00:00 (CET)
Datum & Tijd tt [°C] td [°C] ff [km/u] ff [kn] fx [km/u] fx [kn] dd ppp [hPa] vv [km] sd [min]
25.02.2020 03:00:00 15,4 8,1 24 13 - - ZW 1023,6 19 0
25.02.2020 02:00:00 15,5 8,6 18 10 - - WZW 1024,0 13 0
25.02.2020 01:00:00 15,5 8,6 15 8 - - WZW 1024,6 16 -
25.02.2020 00:00:00 14,9 10,6 13 7 - - W 1024,9 14 0
24.02.2020 23:00:00 15,3 10,7 16 9 - - WZW 1025,0 14 0
24.02.2020 22:00:00 14,8 11,5 15 8 - - W 1024,7 13 0
24.02.2020 21:00:00 15,8 12,1 11 6 - - WZW 1024,7 14 0
24.02.2020 20:00:00 16,1 12,1 5 3 - - WZW 1024,7 14 0
24.02.2020 19:00:00 17,3 10,6 4 2 - - WNW 1024,6 16 60
24.02.2020 18:00:00 17,9 10,7 4 2 - - O 1024,6 15 60
24.02.2020 17:00:00 17,6 10,9 5 3 - - WZW 1025,1 16 60
24.02.2020 16:00:00 17,4 10,9 9 5 - - OZO 1025,8 15 60
24.02.2020 15:00:00 16,3 10,7 9 5 - - O 1026,8 16 60
24.02.2020 14:00:00 16,2 10,7 11 6 - - O 1027,9 20 60
24.02.2020 13:00:00 16,2 11,1 9 5 - - ONO 1029,1 20 60
24.02.2020 12:00:00 15,8 11,0 11 6 - - ONO 1029,9 20 54
24.02.2020 11:00:00 15,5 11,1 8 4 - - NO 1030,3 20 36
24.02.2020 10:00:00 14,4 11,0 13 7 - - NO 1030,2 15 6
24.02.2020 09:00:00 15,1 10,3 15 8 - - OZO 1029,8 15 0
24.02.2020 08:00:00 14,3 11,3 11 6 - - ONO 1029,5 15 0
24.02.2020 07:00:00 15,1 10,6 18 10 - - O 1029,3 15 0
24.02.2020 06:00:00 15,1 11,0 26 14 - - O 1029,4 16 0
24.02.2020 05:00:00 15,1 10,8 26 14 - - O 1029,5 15 0
24.02.2020 04:00:00 15,1 11,3 26 14 - - O 1029,9 15 0
24.02.2020 03:00:00 15,1 11,6 28 15 - - O 1030,2 14 0
24.02.2020 02:00:00 15,0 11,6 28 15 - - O 1030,5 14 0
24.02.2020 01:00:00 14,8 11,8 28 15 - - O 1030,7 14 -
24.02.2020 00:00:00 14,9 11,8 28 15 - - O 1031,1 14 0
23.02.2020 23:00:00 14,9 11,6 29 16 - - O 1031,2 15 0
23.02.2020 22:00:00 15,0 11,9 21 11 - - O 1031,4 15 0
23.02.2020 21:00:00 15,3 11,9 18 10 - - O 1031,1 15 0
23.02.2020 20:00:00 15,4 12,0 21 11 - - O 1030,7 15 0
23.02.2020 19:00:00 15,7 11,9 21 11 - - O 1030,5 15 24
23.02.2020 18:00:00 16,0 11,6 24 13 - - O 1030,7 18 60
23.02.2020 17:00:00 17,0 11,7 26 14 - - O 1031,2 18 54
23.02.2020 16:00:00 16,5 11,2 28 15 - - O 1031,4 18 42
23.02.2020 15:00:00 16,6 11,5 28 15 48 26 O 1031,8 18 18
23.02.2020 14:00:00 16,5 11,6 31 17 50 27 O 1032,6 15 18
23.02.2020 13:00:00 16,7 12,1 34 18 50 27 O 1033,1 15 6
23.02.2020 12:00:00 16,3 11,5 34 18 52 28 O 1033,2 15 30
23.02.2020 11:00:00 16,2 11,9 35 19 57 31 O 1033,0 15 18
23.02.2020 10:00:00 15,4 11,5 35 19 52 28 O 1032,7 15 18
23.02.2020 09:00:00 15,1 11,3 34 18 52 28 O 1031,8 15 6
23.02.2020 08:00:00 14,8 10,8 34 18 50 27 O 1031,5 15 0
23.02.2020 07:00:00 14,7 11,2 35 19 48 26 O 1031,3 15 0
23.02.2020 06:00:00 14,7 11,1 34 18 50 27 O 1030,9 16 0
23.02.2020 05:00:00 14,9 11,6 41 22 52 28 O 1030,9 14 0
23.02.2020 04:00:00 14,9 11,4 42 23 54 29 O 1031,2 16 0
23.02.2020 03:00:00 14,9 11,6 42 23 54 29 O 1031,3 15 0
23.02.2020 02:00:00 14,9 11,7 42 23 54 29 O 1031,4 14 0
23.02.2020 01:00:00 14,9 11,4 44 24 52 28 O 1031,4 15 -
23.02.2020 00:00:00 14,9 11,5 42 23 54 29 O 1031,5 16 0
22.02.2020 23:00:00 15,0 11,7 41 22 54 29 O 1031,5 15 0
22.02.2020 22:00:00 14,9 11,3 42 23 52 28 O 1031,3 16 0
22.02.2020 21:00:00 15,0 11,4 46 25 54 29 O 1030,6 16 0
22.02.2020 20:00:00 15,1 11,2 48 26 52 28 O 1030,0 16 0
22.02.2020 19:00:00 15,6 11,6 31 17 48 26 O 1029,6 15 54
22.02.2020 18:00:00 15,8 11,4 29 16 48 26 O 1029,6 15 60
22.02.2020 17:00:00 15,8 11,4 31 17 48 26 O 1029,6 15 60
22.02.2020 16:00:00 15,9 11,9 29 16 46 25 O 1030,0 15 54
22.02.2020 15:00:00 16,0 11,9 31 17 50 27 ONO 1030,5 15 18
22.02.2020 14:00:00 15,7 11,8 34 18 - - O 1031,3 15 0
22.02.2020 13:00:00 15,8 11,7 34 18 - - O 1031,9 15 0
22.02.2020 12:00:00 15,8 11,3 34 18 - - O 1032,0 15 0
22.02.2020 11:00:00 15,8 11,1 35 19 - - O 1031,8 15 0
22.02.2020 10:00:00 15,5 11,4 37 20 - - O 1031,4 15 0
22.02.2020 09:00:00 15,3 11,2 37 20 - - O 1030,7 16 0
22.02.2020 08:00:00 15,0 10,7 34 18 - - O 1030,2 15 0
22.02.2020 07:00:00 15,0 11,2 31 17 - - O 1029,8 15 0
22.02.2020 06:00:00 15,1 11,6 31 17 - - O 1029,5 14 0
22.02.2020 05:00:00 14,8 11,4 41 22 48 26 O 1029,3 14 0
22.02.2020 04:00:00 15,1 11,5 41 22 52 28 O 1029,2 15 0
22.02.2020 03:00:00 15,0 11,1 42 23 54 29 O 1029,3 14 0
22.02.2020 02:00:00 15,1 11,5 42 23 52 28 O 1029,4 14 0
22.02.2020 01:00:00 15,1 11,2 41 22 50 27 O 1029,8 16 -
22.02.2020 00:00:00 15,1 11,5 41 22 50 27 O 1029,9 15 0
21.02.2020 23:00:00 15,0 11,5 42 23 52 28 O 1029,8 15 0
21.02.2020 22:00:00 15,4 11,3 34 18 54 29 O 1029,5 15 0
21.02.2020 21:00:00 15,1 11,6 35 19 55 30 O 1028,9 12 0
21.02.2020 20:00:00 15,3 11,6 35 19 52 28 O 1028,6 12 0
21.02.2020 19:00:00 15,5 11,3 37 20 52 28 O 1028,2 10 18
21.02.2020 18:00:00 15,8 10,9 34 18 55 30 O 1028,1 15 54
21.02.2020 17:00:00 16,6 11,1 39 21 57 31 O 1027,8 12 60
21.02.2020 16:00:00 16,3 11,2 41 22 57 31 O 1027,8 12 18
21.02.2020 15:00:00 16,2 11,4 41 22 57 31 O 1028,1 20 0
21.02.2020 14:00:00 16,4 11,5 41 22 59 32 O 1028,4 20 0
21.02.2020 13:00:00 16,0 11,8 37 20 57 31 O 1028,6 20 0
21.02.2020 12:00:00 15,9 11,9 37 20 54 29 O 1028,7 20 0
21.02.2020 11:00:00 15,9 11,7 34 18 50 27 O 1028,3 25 18
21.02.2020 10:00:00 15,8 11,3 34 18 50 27 O 1027,8 20 30
21.02.2020 09:00:00 15,4 11,3 31 17 48 26 O 1027,0 20 12
21.02.2020 08:00:00 15,1 11,1 29 16 - - O 1026,1 15 0
21.02.2020 07:00:00 15,1 11,6 31 17 46 25 O 1025,5 15 0
21.02.2020 06:00:00 15,1 11,8 31 17 - - O 1025,2 12 0
21.02.2020 05:00:00 15,0 11,4 37 20 46 25 O 1025,1 15 0
21.02.2020 04:00:00 15,0 11,6 39 21 46 25 O 1025,6 15 0
21.02.2020 03:00:00 15,0 11,8 34 18 - - ONO 1025,8 15 0
21.02.2020 02:00:00 15,2 12,2 34 18 - - O 1026,0 14 0
21.02.2020 01:00:00 15,2 11,9 35 19 - - O 1026,3 15 -
21.02.2020 00:00:00 15,1 11,9 35 19 - - O 1025,9 14 0
20.02.2020 23:00:00 15,1 12,1 31 17 - - O 1025,4 13 0
20.02.2020 22:00:00 15,1 12,3 34 18 - - O 1024,8 13 0
20.02.2020 21:00:00 15,2 12,3 28 15 - - O 1024,4 12 0
20.02.2020 20:00:00 15,3 12,2 37 20 - - O 1024,0 12 0
20.02.2020 19:00:00 15,6 12,0 29 16 - - O 1023,4 15 0
20.02.2020 18:00:00 15,7 11,9 29 16 - - O 1023,2 15 0
20.02.2020 17:00:00 15,7 12,1 31 17 - - O 1022,8 15 0
20.02.2020 16:00:00 15,7 11,7 31 17 46 25 O 1022,9 15 0
20.02.2020 15:00:00 15,7 11,8 31 17 48 26 O 1023,1 20 0
20.02.2020 14:00:00 15,9 11,7 31 17 50 27 O 1023,7 20 0
20.02.2020 13:00:00 15,7 11,8 31 17 48 26 O 1024,4 20 0
20.02.2020 12:00:00 15,7 12,1 31 17 46 25 O 1024,6 20 0
20.02.2020 11:00:00 15,7 11,7 31 17 48 26 O 1024,7 20 36
20.02.2020 10:00:00 15,5 11,6 34 18 48 26 O 1024,3 18 30
20.02.2020 09:00:00 15,2 11,7 34 18 46 25 O 1024,1 15 0
20.02.2020 08:00:00 15,2 11,9 31 17 52 28 O 1024,1 12 0
20.02.2020 07:00:00 15,3 11,7 35 19 55 30 O 1024,1 12 0
20.02.2020 06:00:00 15,4 11,7 37 20 59 32 O 1024,2 12 0
20.02.2020 05:00:00 15,3 12,0 50 27 63 34 O 1024,1 11 0
20.02.2020 04:00:00 15,4 11,8 54 29 63 34 O 1024,5 12 0
20.02.2020 03:00:00 15,4 11,6 54 29 63 34 O 1025,2 12 0
20.02.2020 02:00:00 15,3 11,7 52 28 65 35 O 1025,7 12 0
20.02.2020 01:00:00 15,4 12,0 57 31 68 37 O 1025,9 12 -
20.02.2020 00:00:00 15,4 12,5 52 28 63 34 O 1026,1 11 0
19.02.2020 23:00:00 15,5 11,9 54 29 61 33 O 1026,6 12 0
19.02.2020 22:00:00 15,5 12,2 52 28 61 33 O 1026,9 12 0
19.02.2020 21:00:00 15,5 12,1 54 29 63 34 O 1027,1 13 0
19.02.2020 20:00:00 15,5 12,7 48 26 55 30 O 1026,9 12 0
19.02.2020 19:00:00 15,8 13,0 35 19 55 30 O 1027,0 11 6
19.02.2020 18:00:00 16,2 12,6 37 20 54 29 O 1026,8 11 36
19.02.2020 17:00:00 16,6 13,1 31 17 52 28 O 1026,9 11 42
19.02.2020 16:00:00 17,0 13,0 35 19 59 32 O 1026,9 11 12
19.02.2020 15:00:00 17,0 12,2 41 22 61 33 O 1027,4 11 0
19.02.2020 14:00:00 16,8 12,6 41 22 61 33 OZO 1027,9 25 0
19.02.2020 13:00:00 16,9 12,4 39 21 65 35 O 1028,6 25 0
19.02.2020 12:00:00 16,7 12,6 41 22 59 32 O 1029,2 25 0
19.02.2020 11:00:00 16,2 12,6 35 19 55 30 O 1029,3 18 0
19.02.2020 10:00:00 16,0 13,1 34 18 48 26 O 1029,2 15 0
19.02.2020 09:00:00 15,8 12,9 31 17 46 25 O 1028,7 10 0
19.02.2020 08:00:00 15,6 13,3 26 14 - - O 1028,3 10 0
19.02.2020 07:00:00 15,5 13,3 26 14 - - O 1028,4 20 0
19.02.2020 06:00:00 15,6 13,1 31 17 - - O 1028,5 12 0
19.02.2020 05:00:00 15,6 13,0 34 18 - - O 1028,4 12 0
19.02.2020 04:00:00 15,5 13,5 34 18 - - O 1028,2 12 0
19.02.2020 03:00:00 15,4 13,8 26 14 - - ONO 1028,6 10 0

tt = temperatuur
td = dauwpunt
ff = windsnelheid
fx = windstoten
dd = windrichting
ppp = luchtdruk
vv = zicht
sd = Zonneschijnduur

Weerstations in de omgeving